Data No, UTC Date,UTC Time,Latitude,Longitude,Course(deg),Temp(degC),Sal(psu)
560,2021/2/24,9:19,42-36.89N,141-37.02E,212,3.494,32.6173
561,2021/2/24,9:20,42-36.64N,141-36.89E,195,3.541,32.641
562,2021/2/24,9:21,42-36.41N,141-36.92E,176,3.578,32.7006
563,2021/2/24,9:22,42-36.12N,141-36.94E,176,3.78,32.7148
564,2021/2/24,9:23,42-35.81N,141-36.97E,176,3.945,32.7641
565,2021/2/24,9:24,42-35.51N,141-37.00E,176,3.98,32.9335
566,2021/2/24,9:25,42-35.19N,141-37.03E,175,3.959,33.0125
567,2021/2/24,9:26,42-34.87N,141-37.06E,176,3.929,33.0615
568,2021/2/24,9:27,42-34.55N,141-37.08E,178,3.888,33.0625
569,2021/2/24,9:28,42-34.22N,141-37.08E,180,3.84,33.0631
570,2021/2/24,9:29,42-33.89N,141-37.07E,181,3.788,33.065
571,2021/2/24,9:30,42-33.56N,141-37.06E,181,3.728,33.0474
572,2021/2/24,9:31,42-33.23N,141-37.05E,181,3.707,33.0332
573,2021/2/24,9:32,42-32.90N,141-37.04E,181,3.694,33.0312
574,2021/2/24,9:33,42-32.55N,141-37.03E,181,3.741,33.0277
575,2021/2/24,9:34,42-32.20N,141-37.02E,181,3.764,33.0384
576,2021/2/24,9:35,42-31.85N,141-37.01E,181,3.993,33.0589
577,2021/2/24,9:36,42-31.50N,141-37.00E,180,4.024,33.0829
578,2021/2/24,9:37,42-31.15N,141-37.00E,180,4.02,33.0869
579,2021/2/24,9:38,42-30.78N,141-36.99E,180,4.013,33.1132
580,2021/2/24,9:39,42-30.43N,141-36.99E,181,3.999,33.1072
581,2021/2/24,9:40,42-30.07N,141-36.97E,181,3.994,33.1045
582,2021/2/24,9:41,42-29.71N,141-36.96E,182,3.988,33.1031
583,2021/2/24,9:42,42-29.35N,141-36.94E,181,3.987,33.1017
584,2021/2/24,9:43,42-28.97N,141-36.93E,181,3.983,33.1116
585,2021/2/24,9:44,42-28.60N,141-36.92E,181,3.986,33.108
586,2021/2/24,9:45,42-28.22N,141-36.90E,181,3.984,33.1046
587,2021/2/24,9:46,42-27.85N,141-36.89E,182,3.983,33.1119
588,2021/2/24,9:47,42-27.49N,141-36.87E,181,4.018,33.1158
589,2021/2/24,9:48,42-27.11N,141-36.86E,181,4.031,33.1187
590,2021/2/24,9:49,42-26.73N,141-36.85E,181,4.037,33.1205
591,2021/2/24,9:50,42-26.34N,141-36.83E,181,4.052,33.1063
592,2021/2/24,9:51,42-25.96N,141-36.81E,182,4.05,33.1035
593,2021/2/24,9:52,42-25.58N,141-36.79E,182,4.045,33.0985
594,2021/2/24,9:53,42-25.18N,141-36.77E,182,4.031,33.0889
595,2021/2/24,9:54,42-24.74N,141-36.75E,182,4.023,33.076
596,2021/2/24,9:55,42-24.34N,141-36.73E,182,4.015,33.0891
597,2021/2/24,9:56,42-23.94N,141-36.71E,182,4.013,33.0855
598,2021/2/24,9:57,42-23.57N,141-36.69E,182,4.01,33.087
599,2021/2/24,9:58,42-23.18N,141-36.67E,182,4.013,33.0849
600,2021/2/24,9:59,42-22.80N,141-36.64E,183,4.008,33.0861
601,2021/2/24,10:00,42-22.41N,141-36.61E,183,4.007,33.0838
602,2021/2/24,10:01,42-22.10N,141-36.59E,183,3.992,33.0923
603,2021/2/24,10:02,42-21.72N,141-36.56E,183,3.983,33.0956
604,2021/2/24,10:03,42-21.27N,141-36.53E,183,3.976,33.0832
605,2021/2/24,10:04,42-20.92N,141-36.49E,183,3.961,33.09
606,2021/2/24,10:05,42-20.56N,141-36.47E,182,3.944,33.1053
607,2021/2/24,10:06,42-20.13N,141-36.44E,182,3.953,33.0999
608,2021/2/24,10:07,42-19.74N,141-36.43E,182,4.019,33.0929
609,2021/2/24,10:08,42-19.35N,141-36.40E,182,4.154,33.0757
610,2021/2/24,10:09,42-18.97N,141-36.39E,182,4.117,33.0877
611,2021/2/24,10:10,42-18.57N,141-36.37E,182,4.039,33.0812
612,2021/2/24,10:11,42-18.19N,141-36.35E,183,4.009,33.0692
613,2021/2/24,10:12,42-17.80N,141-36.32E,182,3.985,33.0614
614,2021/2/24,10:13,42-17.41N,141-36.30E,182,3.963,33.0473
615,2021/2/24,10:14,42-17.03N,141-36.29E,181,3.904,33.0399
616,2021/2/24,10:15,42-16.64N,141-36.27E,182,3.885,33.0341
617,2021/2/24,10:16,42-16.26N,141-36.26E,182,3.931,33.0322
618,2021/2/24,10:17,42-15.92N,141-36.26E,181,3.989,33.0158
619,2021/2/24,10:18,42-15.52N,141-36.25E,180,4.035,33.0429
620,2021/2/24,10:19,42-15.09N,141-36.25E,180,4.254,33.0499
621,2021/2/24,10:20,42-14.68N,141-36.24E,181,4.345,33.0542
622,2021/2/24,10:21,42-14.34N,141-36.23E,181,4.253,33.0609
623,2021/2/24,10:22,42-13.96N,141-36.21E,182,4.173,33.0529
624,2021/2/24,10:23,42-13.57N,141-36.19E,181,4.096,33.0424
625,2021/2/24,10:24,42-13.19N,141-36.18E,181,3.961,33.0285
626,2021/2/24,10:25,42-12.79N,141-36.16E,181,3.788,33.0178
627,2021/2/24,10:26,42-12.41N,141-36.15E,181,3.724,32.9795
628,2021/2/24,10:27,42-12.02N,141-36.14E,181,3.714,32.9619
629,2021/2/24,10:28,42-11.63N,141-36.12E,182,3.685,32.9566
630,2021/2/24,10:29,42-11.25N,141-36.11E,181,3.649,32.9508
631,2021/2/24,10:30,42-10.85N,141-36.09E,181,3.637,32.9406
632,2021/2/24,10:31,42-10.47N,141-36.08E,181,3.634,32.9415
633,2021/2/24,10:32,42-10.08N,141-36.06E,181,3.641,32.9385
634,2021/2/24,10:33,42-09.68N,141-36.05E,181,3.667,32.9315
635,2021/2/24,10:34,42-09.30N,141-36.03E,181,3.7,32.943
636,2021/2/24,10:35,42-08.91N,141-36.01E,182,3.73,32.9382
637,2021/2/24,10:36,42-08.53N,141-35.99E,182,3.733,32.9369
638,2021/2/24,10:37,42-08.14N,141-35.97E,182,3.739,32.9431
639,2021/2/24,10:38,42-07.75N,141-35.95E,181,3.735,32.956
640,2021/2/24,10:39,42-07.36N,141-35.93E,181,3.726,32.9532
641,2021/2/24,10:40,42-06.97N,141-35.92E,181,3.733,32.9441
642,2021/2/24,10:41,42-06.59N,141-35.90E,182,3.751,32.9475
643,2021/2/24,10:42,42-06.21N,141-35.88E,182,3.763,32.9504
644,2021/2/24,10:43,42-05.80N,141-35.86E,182,3.77,32.9499
645,2021/2/24,10:44,42-05.43N,141-35.84E,182,3.795,32.9524
646,2021/2/24,10:45,42-05.04N,141-35.82E,182,3.814,32.955
647,2021/2/24,10:46,42-04.65N,141-35.80E,182,3.86,32.9573
648,2021/2/24,10:47,42-04.26N,141-35.77E,182,3.904,32.9619
649,2021/2/24,10:48,42-03.87N,141-35.75E,182,3.918,32.9784
650,2021/2/24,10:49,42-03.48N,141-35.73E,182,3.938,32.9797
651,2021/2/24,10:50,42-03.09N,141-35.71E,182,3.947,32.9872
652,2021/2/24,10:51,42-02.70N,141-35.70E,181,3.936,32.9802
653,2021/2/24,10:52,42-02.32N,141-35.68E,182,3.919,32.9852
654,2021/2/24,10:53,42-01.92N,141-35.66E,182,3.894,32.9846
655,2021/2/24,10:54,42-01.54N,141-35.63E,183,3.881,32.9788
656,2021/2/24,10:55,42-01.15N,141-35.61E,183,3.862,32.9783
657,2021/2/24,10:56,42-00.76N,141-35.58E,182,3.847,32.9767
658,2021/2/24,10:57,42-00.37N,141-35.55E,183,3.844,32.9804
659,2021/2/24,10:58,41-59.98N,141-35.53E,182,3.826,32.9823
660,2021/2/24,10:59,41-59.60N,141-35.51E,183,3.814,32.9836
661,2021/2/24,11:00,41-59.21N,141-35.48E,182,3.804,32.9777
662,2021/2/24,11:01,41-58.82N,141-35.45E,183,3.792,32.9761
663,2021/2/24,11:02,41-58.44N,141-35.43E,182,3.796,32.9881
664,2021/2/24,11:03,41-58.04N,141-35.42E,181,3.783,32.9815
665,2021/2/24,11:04,41-57.65N,141-35.40E,182,3.78,32.9719
666,2021/2/24,11:05,41-57.27N,141-35.37E,183,3.785,32.9769
667,2021/2/24,11:06,41-56.87N,141-35.33E,183,3.78,32.9791
668,2021/2/24,11:07,41-56.49N,141-35.31E,182,3.773,32.9852
669,2021/2/24,11:08,41-56.10N,141-35.30E,180,3.761,32.9883
670,2021/2/24,11:09,41-55.72N,141-35.28E,182,3.752,32.9906
671,2021/2/24,11:10,41-55.34N,141-35.26E,182,3.751,32.99
672,2021/2/24,11:11,41-54.95N,141-35.25E,181,3.794,32.986
673,2021/2/24,11:12,41-54.57N,141-35.24E,181,3.834,33.0004
674,2021/2/24,11:13,41-54.18N,141-35.22E,181,3.986,32.9962
675,2021/2/24,11:14,41-53.80N,141-35.21E,181,3.917,32.9967
676,2021/2/24,11:15,41-53.42N,141-35.20E,181,3.862,33.0101
677,2021/2/24,11:16,41-53.03N,141-35.18E,181,3.806,33.0045
678,2021/2/24,11:17,41-52.66N,141-35.17E,181,3.766,32.9976
679,2021/2/24,11:18,41-52.27N,141-35.16E,181,3.766,32.9927
680,2021/2/24,11:19,41-51.90N,141-35.14E,182,3.763,32.9852
681,2021/2/24,11:20,41-51.51N,141-35.11E,183,3.755,32.9969
682,2021/2/24,11:21,41-51.12N,141-35.08E,183,3.787,32.9881
683,2021/2/24,11:22,41-50.75N,141-35.05E,183,3.785,32.9975
684,2021/2/24,11:23,41-50.35N,141-35.02E,183,3.791,33.0054
685,2021/2/24,11:24,41-49.97N,141-34.99E,182,3.821,33.0021
686,2021/2/24,11:25,41-49.59N,141-34.96E,183,3.867,33.0074
687,2021/2/24,11:26,41-49.19N,141-34.93E,182,3.96,33.0112
688,2021/2/24,11:27,41-48.82N,141-34.91E,182,4.007,33.0267
689,2021/2/24,11:28,41-48.42N,141-34.87E,184,3.896,33.0155
690,2021/2/24,11:29,41-48.05N,141-34.84E,183,3.757,33.0171
691,2021/2/24,11:30,41-47.66N,141-34.81E,183,3.777,32.9959
692,2021/2/24,11:31,41-47.27N,141-34.77E,184,3.7,32.9667
693,2021/2/24,11:32,41-46.89N,141-34.75E,179,4.249,32.9544
694,2021/2/24,11:33,41-46.50N,141-34.76E,180,8.063,32.9548
695,2021/2/24,11:34,41-46.13N,141-34.74E,181,8.576,33.1871
696,2021/2/24,11:35,41-45.75N,141-34.73E,180,8.703,33.3784
697,2021/2/24,11:36,41-45.36N,141-34.72E,181,8.767,33.4677
698,2021/2/24,11:37,41-44.99N,141-34.70E,182,8.789,33.5069
699,2021/2/24,11:38,41-44.60N,141-34.68E,180,8.781,33.5237
700,2021/2/24,11:39,41-44.22N,141-34.66E,182,8.771,33.5385
701,2021/2/24,11:40,41-43.84N,141-34.64E,182,8.77,33.5404
702,2021/2/24,11:41,41-43.45N,141-34.63E,181,8.752,33.5567
703,2021/2/24,11:42,41-43.07N,141-34.61E,181,8.722,33.5528
704,2021/2/24,11:43,41-42.68N,141-34.60E,181,8.683,33.5569
705,2021/2/24,11:44,41-42.30N,141-34.59E,180,8.69,33.5647
706,2021/2/24,11:45,41-41.91N,141-34.58E,179,8.723,33.5498
707,2021/2/24,11:46,41-41.52N,141-34.61E,177,8.68,33.5581
708,2021/2/24,11:47,41-41.14N,141-34.64E,175,8.63,33.5632
709,2021/2/24,11:48,41-40.75N,141-34.69E,174,8.623,33.584
710,2021/2/24,11:49,41-40.37N,141-34.73E,175,8.494,33.5803
711,2021/2/24,11:50,41-39.99N,141-34.78E,173,8.453,33.5832
712,2021/2/24,11:51,41-39.59N,141-34.85E,172,8.747,33.5809
713,2021/2/24,11:52,41-39.21N,141-34.92E,171,8.729,33.5738
714,2021/2/24,11:53,41-38.82N,141-35.01E,171,8.712,33.5823
715,2021/2/24,11:54,41-38.44N,141-35.08E,172,8.626,33.5828
716,2021/2/24,11:55,41-38.04N,141-35.15E,172,8.628,33.5823
717,2021/2/24,11:56,41-37.65N,141-35.22E,170,8.561,33.5882
718,2021/2/24,11:57,41-37.26N,141-35.32E,169,8.513,33.5841
719,2021/2/24,11:58,41-36.87N,141-35.40E,170,8.524,33.5808
720,2021/2/24,11:59,41-36.48N,141-35.48E,171,8.468,33.5635
721,2021/2/24,12:00,41-36.08N,141-35.57E,170,8.443,33.5676
722,2021/2/24,12:01,41-35.68N,141-35.65E,171,8.434,33.558
723,2021/2/24,12:02,41-35.28N,141-35.72E,171,8.483,33.5518
724,2021/2/24,12:03,41-34.83N,141-35.81E,171,8.301,33.559
725,2021/2/24,12:04,41-34.44N,141-35.88E,172,8.324,33.5503
726,2021/2/24,12:05,41-34.04N,141-35.95E,172,8.345,33.5176
727,2021/2/24,12:06,41-33.64N,141-36.02E,172,8.4,33.5261
728,2021/2/24,12:07,41-33.26N,141-36.09E,172,8.475,33.5229
729,2021/2/24,12:08,41-32.85N,141-36.15E,173,8.549,33.5123
730,2021/2/24,12:09,41-32.52N,141-36.19E,175,8.596,33.5166
731,2021/2/24,12:10,41-32.12N,141-36.24E,175,8.675,33.5195
732,2021/2/24,12:11,41-31.72N,141-36.29E,174,8.788,33.5275
733,2021/2/24,12:12,41-31.27N,141-36.34E,175,8.86,33.5254
734,2021/2/24,12:13,41-30.87N,141-36.39E,174,8.945,33.5296
735,2021/2/24,12:14,41-30.47N,141-36.44E,175,8.967,33.5259
736,2021/2/24,12:15,41-30.07N,141-36.47E,176,8.974,33.5363
737,2021/2/24,12:16,41-29.72N,141-36.50E,175,8.969,33.533
738,2021/2/24,12:17,41-29.32N,141-36.54E,175,8.974,33.5352
739,2021/2/24,12:18,41-28.91N,141-36.58E,175,8.971,33.5386
740,2021/2/24,12:19,41-28.51N,141-36.62E,176,8.966,33.5441
741,2021/2/24,12:20,41-28.11N,141-36.65E,175,8.965,33.5346
742,2021/2/24,12:21,41-27.70N,141-36.69E,176,8.961,33.5464
743,2021/2/24,12:22,41-27.30N,141-36.72E,175,8.962,33.5402
744,2021/2/24,12:23,41-26.88N,141-36.76E,176,8.959,33.5407
745,2021/2/24,12:24,41-26.48N,141-36.79E,176,8.957,33.5361
746,2021/2/24,12:25,41-26.07N,141-36.81E,176,8.949,33.5411
747,2021/2/24,12:26,41-25.66N,141-36.89E,170,8.938,33.53
748,2021/2/24,12:27,41-25.27N,141-37.00E,167,8.94,33.5397
749,2021/2/24,12:28,41-24.87N,141-37.13E,165,8.928,33.5407
750,2021/2/24,12:29,41-24.47N,141-37.26E,165,8.909,33.5394
751,2021/2/24,12:30,41-24.08N,141-37.39E,166,8.887,33.5383
752,2021/2/24,12:31,41-23.67N,141-37.52E,166,8.878,33.5491
753,2021/2/24,12:32,41-23.28N,141-37.64E,166,8.864,33.5388
754,2021/2/24,12:33,41-22.88N,141-37.77E,166,8.848,33.5392
755,2021/2/24,12:34,41-22.49N,141-37.90E,163,8.832,33.5441
756,2021/2/24,12:35,41-22.10N,141-38.04E,165,8.846,33.5404
757,2021/2/24,12:36,41-21.71N,141-38.18E,165,8.853,33.5513
758,2021/2/24,12:37,41-21.32N,141-38.31E,166,8.846,33.5323
759,2021/2/24,12:38,41-20.93N,141-38.44E,165,8.829,33.5388
760,2021/2/24,12:39,41-20.54N,141-38.58E,164,8.81,33.5381
761,2021/2/24,12:40,41-20.15N,141-38.72E,164,8.826,33.5348
762,2021/2/24,12:41,41-19.76N,141-38.87E,164,8.859,33.5372
763,2021/2/24,12:42,41-19.38N,141-39.01E,164,8.864,33.5313
764,2021/2/24,12:43,41-18.99N,141-39.15E,164,8.873,33.5306
765,2021/2/24,12:44,41-18.60N,141-39.29E,164,8.878,33.5242
766,2021/2/24,12:45,41-18.21N,141-39.43E,164,8.885,33.532
767,2021/2/24,12:46,41-17.81N,141-39.57E,165,8.894,33.5308
768,2021/2/24,12:47,41-17.42N,141-39.70E,165,8.892,33.5344
769,2021/2/24,12:48,41-17.03N,141-39.84E,165,8.888,33.5456
770,2021/2/24,12:49,41-16.59N,141-39.98E,166,8.891,33.5384
771,2021/2/24,12:50,41-16.20N,141-40.12E,165,8.892,33.5453
772,2021/2/24,12:51,41-15.85N,141-40.24E,165,8.883,33.5337
773,2021/2/24,12:52,41-15.47N,141-40.37E,165,8.886,33.5442
774,2021/2/24,12:53,41-15.08N,141-40.50E,166,8.891,33.549
775,2021/2/24,12:54,41-14.69N,141-40.63E,166,8.88,33.5417
776,2021/2/24,12:55,41-14.29N,141-40.75E,165,8.873,33.54
777,2021/2/24,12:56,41-13.90N,141-40.88E,166,8.867,33.5469
778,2021/2/24,12:57,41-13.51N,141-41.00E,165,8.852,33.5427
779,2021/2/24,12:58,41-13.12N,141-41.13E,166,8.836,33.5362
780,2021/2/24,12:59,41-12.73N,141-41.25E,167,8.83,33.5362
781,2021/2/24,13:00,41-12.34N,141-41.37E,166,8.816,33.5271
782,2021/2/24,13:01,41-11.95N,141-41.50E,165,8.807,33.5408
783,2021/2/24,13:02,41-11.57N,141-41.65E,163,8.808,33.5243
784,2021/2/24,13:03,41-11.17N,141-41.81E,162,8.801,33.5278
785,2021/2/24,13:04,41-10.75N,141-41.98E,162,8.792,33.5254
786,2021/2/24,13:05,41-10.37N,141-42.13E,163,8.788,33.526
787,2021/2/24,13:06,41-10.03N,141-42.26E,163,8.786,33.5303
788,2021/2/24,13:07,41-09.66N,141-42.42E,162,8.781,33.5321
789,2021/2/24,13:08,41-09.27N,141-42.57E,163,8.772,33.5351
790,2021/2/24,13:09,41-08.88N,141-42.72E,164,8.769,33.524
791,2021/2/24,13:10,41-08.51N,141-42.86E,164,8.766,33.5319
792,2021/2/24,13:11,41-08.08N,141-43.01E,165,8.765,33.5247
793,2021/2/24,13:12,41-07.69N,141-43.15E,164,8.758,33.5255
794,2021/2/24,13:13,41-07.30N,141-43.28E,165,8.743,33.5196
795,2021/2/24,13:14,41-06.90N,141-43.42E,165,8.737,33.5301
796,2021/2/24,13:15,41-06.53N,141-43.56E,164,8.724,33.5268
797,2021/2/24,13:16,41-06.14N,141-43.70E,165,8.721,33.5184
798,2021/2/24,13:17,41-05.81N,141-43.80E,166,8.716,33.5237
799,2021/2/24,13:18,41-05.43N,141-43.93E,166,8.715,33.52
800,2021/2/24,13:19,41-05.04N,141-44.06E,165,8.727,33.521
801,2021/2/24,13:20,41-04.66N,141-44.19E,165,8.722,33.5155
802,2021/2/24,13:21,41-04.22N,141-44.34E,165,8.719,33.528
803,2021/2/24,13:22,41-03.83N,141-44.48E,165,8.709,33.5188
804,2021/2/24,13:23,41-03.44N,141-44.61E,165,8.71,33.5175
805,2021/2/24,13:24,41-03.06N,141-44.73E,166,8.695,33.5232
806,2021/2/24,13:25,41-02.72N,141-44.85E,165,8.668,33.5195
807,2021/2/24,13:26,41-02.33N,141-44.97E,166,8.661,33.518
808,2021/2/24,13:27,41-01.95N,141-45.10E,165,8.658,33.5111
809,2021/2/24,13:28,41-01.57N,141-45.23E,165,8.647,33.5189
810,2021/2/24,13:29,41-01.17N,141-45.36E,166,8.639,33.5129
811,2021/2/24,13:30,41-00.80N,141-45.48E,165,8.641,33.5098
812,2021/2/24,13:31,41-00.40N,141-45.61E,166,8.638,33.5116
813,2021/2/24,13:32,41-00.03N,141-45.73E,166,8.622,33.5218
814,2021/2/24,13:33,40-59.64N,141-45.85E,166,8.591,33.5154
815,2021/2/24,13:34,40-59.25N,141-45.97E,166,8.589,33.515
816,2021/2/24,13:35,40-58.87N,141-46.10E,165,8.596,33.5209
817,2021/2/24,13:36,40-58.48N,141-46.23E,165,8.592,33.5123
818,2021/2/24,13:37,40-58.11N,141-46.35E,166,8.579,33.514
819,2021/2/24,13:38,40-57.72N,141-46.47E,166,8.563,33.509
820,2021/2/24,13:39,40-57.33N,141-46.59E,167,8.558,33.5236
821,2021/2/24,13:40,40-56.95N,141-46.70E,166,8.516,33.5153
822,2021/2/24,13:41,40-56.56N,141-46.84E,165,8.467,33.5229
823,2021/2/24,13:42,40-56.18N,141-46.97E,165,8.441,33.5314
824,2021/2/24,13:43,40-55.80N,141-47.10E,165,8.438,33.5428
825,2021/2/24,13:44,40-55.41N,141-47.23E,165,8.43,33.5667
826,2021/2/24,13:45,40-55.04N,141-47.36E,164,8.427,33.563
827,2021/2/24,13:46,40-54.65N,141-47.50E,165,8.426,33.5687
828,2021/2/24,13:47,40-54.28N,141-47.63E,165,8.428,33.5639
829,2021/2/24,13:48,40-53.90N,141-47.77E,164,8.426,33.5681
830,2021/2/24,13:49,40-53.52N,141-47.90E,165,8.413,33.5767
831,2021/2/24,13:50,40-53.15N,141-48.02E,165,8.385,33.5879
832,2021/2/24,13:51,40-52.76N,141-48.15E,165,8.367,33.5709
833,2021/2/24,13:52,40-52.39N,141-48.28E,165,8.322,33.5711
834,2021/2/24,13:53,40-52.02N,141-48.41E,164,8.311,33.5629
835,2021/2/24,13:54,40-51.63N,141-48.55E,164,8.309,33.5542
836,2021/2/24,13:55,40-51.26N,141-48.68E,165,8.309,33.5506
837,2021/2/24,13:56,40-50.89N,141-48.81E,166,8.305,33.5517
838,2021/2/24,13:57,40-50.51N,141-48.93E,164,8.303,33.5556
839,2021/2/24,13:58,40-50.14N,141-49.06E,165,8.298,33.5529
840,2021/2/24,13:59,40-49.75N,141-49.18E,166,8.293,33.5585
841,2021/2/24,14:00,40-49.38N,141-49.31E,165,8.277,33.5546
842,2021/2/24,14:01,40-49.00N,141-49.44E,165,8.247,33.5543
843,2021/2/24,14:02,40-48.63N,141-49.56E,166,8.214,33.5589
844,2021/2/24,14:03,40-48.25N,141-49.68E,166,8.194,33.5626
845,2021/2/24,14:04,40-47.87N,141-49.81E,165,8.175,33.5495
846,2021/2/24,14:05,40-47.50N,141-49.93E,165,8.154,33.5524
847,2021/2/24,14:06,40-47.13N,141-50.07E,164,8.112,33.5467
848,2021/2/24,14:07,40-46.75N,141-50.22E,162,8.012,33.5584
849,2021/2/24,14:08,40-46.38N,141-50.36E,164,7.88,33.5608
850,2021/2/24,14:09,40-45.99N,141-50.51E,164,7.918,33.5512
851,2021/2/24,14:10,40-45.61N,141-50.65E,163,7.965,33.546
852,2021/2/24,14:11,40-45.23N,141-50.81E,163,7.965,33.543
853,2021/2/24,14:12,40-44.85N,141-50.96E,163,7.981,33.5335
854,2021/2/24,14:13,40-44.41N,141-51.12E,164,8.008,33.532
855,2021/2/24,14:14,40-44.02N,141-51.27E,163,8.023,33.536
856,2021/2/24,14:15,40-43.64N,141-51.41E,164,8.01,33.5375
857,2021/2/24,14:16,40-43.26N,141-51.55E,164,8.04,33.5414
858,2021/2/24,14:17,40-42.87N,141-51.70E,163,8.057,33.5394
859,2021/2/24,14:18,40-42.49N,141-51.85E,163,8.065,33.5439
860,2021/2/24,14:19,40-42.11N,141-51.99E,164,8.07,33.5447
861,2021/2/24,14:20,40-41.78N,141-52.10E,164,8.081,33.5463
862,2021/2/24,14:21,40-41.40N,141-52.24E,164,8.076,33.5487
863,2021/2/24,14:22,40-41.02N,141-52.38E,164,8.079,33.548
864,2021/2/24,14:23,40-40.64N,141-52.52E,164,8.081,33.548
865,2021/2/24,14:24,40-40.26N,141-52.65E,166,8.076,33.5565
866,2021/2/24,14:25,40-39.83N,141-52.79E,165,8.067,33.5574
867,2021/2/24,14:26,40-39.44N,141-52.93E,165,8.063,33.5578
868,2021/2/24,14:27,40-39.06N,141-53.06E,165,8.049,33.5607
869,2021/2/24,14:28,40-38.67N,141-53.20E,164,8.034,33.5619
870,2021/2/24,14:29,40-38.28N,141-53.34E,164,8.011,33.5593
871,2021/2/24,14:30,40-37.90N,141-53.47E,165,7.985,33.5715
872,2021/2/24,14:31,40-37.52N,141-53.60E,165,7.937,33.5723
873,2021/2/24,14:32,40-37.13N,141-53.73E,165,7.896,33.5604
874,2021/2/24,14:33,40-36.75N,141-53.87E,164,7.85,33.5699
875,2021/2/24,14:34,40-36.36N,141-54.00E,165,7.841,33.5794
876,2021/2/24,14:35,40-35.98N,141-54.14E,164,7.828,33.5802
877,2021/2/24,14:36,40-35.60N,141-54.27E,164,7.84,33.582
878,2021/2/24,14:37,40-35.22N,141-54.41E,165,7.883,33.578
879,2021/2/24,14:38,40-34.84N,141-54.54E,165,7.891,33.5718
880,2021/2/24,14:39,40-34.45N,141-54.67E,164,7.874,33.5636
881,2021/2/24,14:40,40-34.08N,141-54.81E,164,7.879,33.5716
882,2021/2/24,14:41,40-33.70N,141-54.94E,164,7.895,33.5662
883,2021/2/24,14:42,40-33.31N,141-55.07E,164,7.91,33.5502
884,2021/2/24,14:43,40-32.99N,141-55.19E,164,7.918,33.5555
885,2021/2/24,14:44,40-32.60N,141-55.32E,165,7.919,33.5622
886,2021/2/24,14:45,40-32.22N,141-55.44E,165,7.919,33.5598
887,2021/2/24,14:46,40-31.85N,141-55.57E,164,7.911,33.5608
888,2021/2/24,14:47,40-31.47N,141-55.70E,164,7.916,33.5547
889,2021/2/24,14:48,40-31.07N,141-55.84E,165,7.916,33.5627
890,2021/2/24,14:49,40-30.65N,141-55.98E,165,7.915,33.5616
891,2021/2/24,14:50,40-30.27N,141-56.11E,165,7.935,33.5522
892,2021/2/24,14:51,40-29.90N,141-56.23E,165,7.927,33.5559
893,2021/2/24,14:52,40-29.51N,141-56.35E,166,7.922,33.5649
894,2021/2/24,14:53,40-29.16N,141-56.47E,165,7.904,33.5651
895,2021/2/24,14:54,40-28.79N,141-56.59E,165,7.921,33.5544
896,2021/2/24,14:55,40-28.41N,141-56.72E,164,7.894,33.555
897,2021/2/24,14:56,40-28.03N,141-56.85E,165,7.89,33.5549
898,2021/2/24,14:57,40-27.65N,141-56.99E,165,7.871,33.5489
899,2021/2/24,14:58,40-27.27N,141-57.12E,165,7.871,33.5494
900,2021/2/24,14:59,40-26.88N,141-57.25E,165,7.882,33.5473
901,2021/2/24,15:00,40-26.51N,141-57.38E,164,7.861,33.5455
902,2021/2/24,15:01,40-26.13N,141-57.51E,164,7.843,33.5483
903,2021/2/24,15:02,40-25.75N,141-57.65E,164,7.842,33.5445
904,2021/2/24,15:03,40-25.37N,141-57.78E,165,7.86,33.5443
905,2021/2/24,15:04,40-24.99N,141-57.92E,165,7.876,33.535
906,2021/2/24,15:05,40-24.62N,141-58.04E,165,7.894,33.5371
907,2021/2/24,15:06,40-24.24N,141-58.17E,165,7.901,33.5401
908,2021/2/24,15:07,40-23.85N,141-58.30E,165,7.904,33.5365
909,2021/2/24,15:08,40-23.48N,141-58.42E,165,7.908,33.5385
910,2021/2/24,15:09,40-23.09N,141-58.55E,164,7.904,33.5438
911,2021/2/24,15:10,40-22.71N,141-58.68E,165,7.919,33.5497
912,2021/2/24,15:11,40-22.33N,141-58.81E,166,7.908,33.5517
913,2021/2/24,15:12,40-21.94N,141-58.93E,165,7.924,33.5523
914,2021/2/24,15:13,40-21.57N,141-59.05E,166,7.913,33.5563
915,2021/2/24,15:14,40-21.18N,141-59.18E,166,7.898,33.561
916,2021/2/24,15:15,40-20.80N,141-59.30E,166,7.872,33.5587
917,2021/2/24,15:16,40-20.42N,141-59.41E,166,7.859,33.5569
918,2021/2/24,15:17,40-20.03N,141-59.53E,166,7.838,33.5604
919,2021/2/24,15:18,40-19.65N,141-59.65E,166,7.858,33.5624
920,2021/2/24,15:19,40-19.26N,141-59.76E,166,7.887,33.5543
921,2021/2/24,15:20,40-18.88N,141-59.88E,167,7.903,33.5557
922,2021/2/24,15:21,40-18.50N,141-59.99E,167,7.921,33.5612
923,2021/2/24,15:22,40-18.07N,142-00.12E,166,7.923,33.561
924,2021/2/24,15:23,40-17.68N,142-00.24E,166,7.934,33.5609
925,2021/2/24,15:24,40-17.32N,142-00.34E,167,7.934,33.5619
926,2021/2/24,15:25,40-16.96N,142-00.46E,166,7.936,33.5569
927,2021/2/24,15:26,40-16.58N,142-00.57E,167,7.914,33.5575
928,2021/2/24,15:27,40-16.19N,142-00.69E,166,7.892,33.5516
929,2021/2/24,15:28,40-15.81N,142-00.80E,166,7.876,33.5497
930,2021/2/24,15:29,40-15.42N,142-00.92E,166,7.833,33.5461
931,2021/2/24,15:30,40-15.04N,142-01.04E,166,7.81,33.5458
932,2021/2/24,15:31,40-14.65N,142-01.16E,166,7.805,33.5387
933,2021/2/24,15:32,40-14.26N,142-01.26E,168,7.791,33.5401
934,2021/2/24,15:33,40-13.88N,142-01.37E,167,7.783,33.5378
935,2021/2/24,15:34,40-13.49N,142-01.48E,167,7.768,33.5372
936,2021/2/24,15:35,40-13.10N,142-01.59E,167,7.747,33.5374
937,2021/2/24,15:36,40-12.72N,142-01.70E,168,7.733,33.526
938,2021/2/24,15:37,40-12.32N,142-01.81E,168,7.717,33.5349
939,2021/2/24,15:38,40-11.94N,142-01.91E,167,7.71,33.5279
940,2021/2/24,15:39,40-11.54N,142-02.02E,167,7.708,33.5372
941,2021/2/24,15:40,40-11.16N,142-02.13E,167,7.761,33.5318
942,2021/2/24,15:41,40-10.77N,142-02.24E,168,7.79,33.5321
943,2021/2/24,15:42,40-10.38N,142-02.34E,168,7.798,33.5284
944,2021/2/24,15:43,40-09.99N,142-02.44E,168,7.799,33.5369
945,2021/2/24,15:44,40-09.60N,142-02.55E,167,7.824,33.5309
946,2021/2/24,15:45,40-09.22N,142-02.66E,168,7.835,33.5305
947,2021/2/24,15:46,40-08.82N,142-02.76E,168,7.842,33.536
948,2021/2/24,15:47,40-08.43N,142-02.87E,168,7.824,33.5355
949,2021/2/24,15:48,40-08.04N,142-02.97E,169,7.779,33.5437
950,2021/2/24,15:49,40-07.65N,142-03.07E,168,7.765,33.5309
951,2021/2/24,15:50,40-07.21N,142-03.18E,168,7.765,33.5296
952,2021/2/24,15:51,40-06.87N,142-03.27E,168,7.804,33.5327
953,2021/2/24,15:52,40-06.48N,142-03.38E,167,7.809,33.521
954,2021/2/24,15:53,40-06.10N,142-03.48E,167,7.804,33.5287
955,2021/2/24,15:54,40-05.71N,142-03.59E,167,7.791,33.5322
956,2021/2/24,15:55,40-05.33N,142-03.69E,168,7.788,33.5339
957,2021/2/24,15:56,40-04.94N,142-03.80E,168,7.779,33.5288
958,2021/2/24,15:57,40-04.55N,142-03.89E,169,7.821,33.5367
959,2021/2/24,15:58,40-04.16N,142-03.99E,168,7.859,33.5375